Regional Weather Roundup
Issued by NWS

Home | Current Version | Previous Version | Graphics & Text | Print | Product List | Glossary On
Versions: 1 2 3 4 5 6 7 8 9 10 11 12 13 14 15 16 17 18 19 20 21 22 23 24 25 26 27 28 29 30 31 32 33 34 35 36 37 38 39 40 41 42 43 44 45 46 47 48 49 50
000
ASUS43 KMKX 311100
RWRWI

WISCONSIN REGIONAL WEATHER ROUNDUP
NATIONAL WEATHER SERVICE MILWAUKEE/SULLIVAN WI
600 AM CDT THU JUL 31 2014

NOTE: "FAIR" INDICATES FEW OR NO CLOUDS BELOW 12,000 FEET WITH NO
SIGNIFICANT WEATHER AND/OR OBSTRUCTIONS TO VISIBILITY.

WIZ001-002-006>008-014>016-023>028-311200-
NORTHWEST WISCONSIN

CITY           SKY/WX    TMP DP  RH WIND       PRES   REMARKS
SUPERIOR ARPT  CLEAR     55  55  98 SW6       29.98S
ASHLAND        CLEAR     54  53  97 SW6       29.98R
HAYWARD        FOG       53  53 100 S3        30.00S VSB 1/4
SIREN          PTCLDY    59  56  91 W5        30.02R
RICE LAKE        N/A     55  54  95 CALM      30.03S FOG
LADYSMITH      CLEAR     56  55  97 CALM      30.02S FOG
EAU CLAIRE     NOT AVBL
MENOMONIE      SUNNY     59  56  91 W5        30.02R
NEW RICHMOND   CLEAR     56  55  98 CALM      30.03S
OSCEOLA        CLEAR     55  54  99 CALM      30.05S
$$

WIZ003>005-009-010-017-018-311200-
NORTH CENTRAL WISCONSIN

CITY           SKY/WX    TMP DP  RH WIND       PRES   REMARKS
WOODRUFF       HAZE      57  52  84 CALM      29.99S VSB<1/4
RHINELANDER    FOG       54  54 100 W3        30.00S VSB<1/4
EAGLE RIVER    FOG       47  47 100 CALM      29.98S VSB<1/4
LAND O LAKES   FOG       45  45 100 CALM      29.99F VSB<1/4
PHILLIPS       FOG       55  55 100 CALM      30.00R VSB<1/4
TOMAHAWK       FOG       45  44  97 CALM      30.01R VSB 1/2
MEDFORD        CLEAR     55  55  98 W3        30.01R FOG
MERRILL        FOG       49  49 100 CALM      30.00R VSB 1/2
$$

WIZ029-030-035-036-043>047-311200-
CENTRAL WISCONSIN

CITY           SKY/WX    TMP DP  RH WIND       PRES   REMARKS
WAUSAU         CLEAR     57  56  96 CALM      29.98S FOG
MOSINEE        CLEAR     55  55 100 CALM      30.01S
MARSHFIELD     CLEAR     58  57  97 NW7       30.00S FOG
STEVENS POINT  PTCLDY    56  55  96 CALM      30.01R
WAUPACA        PTCLDY    59  57  93 CALM      29.99S
WAUTOMA        CLEAR     55  55 100 CALM      30.00S FOG
WISC RAPIDS    FOG       55  55 100 CALM      30.01S VSB 1/4
CAMP DOUGLAS   CLEAR     54  54 100 W6        30.01S FOG
$$

WIZ011>013-019>022-031-037>040-048>050-311200-
NORTHEAST WISCONSIN

CITY           SKY/WX    TMP DP  RH WIND       PRES   REMARKS
ANTIGO         FOG       50  50 100 CALM      29.99S VSB<1/4
STURGEON BAY     N/A     55  54  94 CALM      29.97S VSB 3/4
GREEN BAY      CLEAR     54  54 100 CALM      29.97R
MANITOWOC      NOT AVBL
APPLETON       PTCLDY    57  55  94 W9        29.99S
CLINTONVILLE   PTCLDY    54  52  94 CALM      29.98S FOG
OSHKOSH        CLEAR     58  56  93 SW3       29.98S
$$

WIZ032>034-041-042-053>061-311200-
SOUTHWEST WISCONSIN

CITY           SKY/WX    TMP DP  RH WIND       PRES   REMARKS
LA CROSSE      CLEAR     62  59  90 S3        30.02R
SPARTA         CLEAR     52  51  97 CALM      30.02S
VIROQUA        FAIR      58  58 100 SW5       30.04S
BOSCOBEL       PTCLDY    58  56  93 CALM      30.03S FOG
PRAIRIE DU CHI CLEAR     57  55  91 CALM      30.04R
PLATTEVILLE    FAIR      57  56  97 SW6       30.05S
$$

WIZ056-057-062-063-064-067-068-311200-
SOUTH CENTRAL WISCONSIN

CITY           SKY/WX    TMP DP  RH WIND       PRES   REMARKS
BARABOO/DELLS  CLEAR     58  56  91 SW3       30.02R
LONE ROCK      FOG       57  54  88 CALM      30.03S VSB 1/4
WATERTOWN      CLEAR     56  55  95 CALM      30.01R
MADISON        CLEAR     63  57  81 CALM      30.01S
MIDDLETON      FAIR      61  58  91 W3        30.02S
MONROE         CLEAR     61  55  82 W12       30.03S
JANESVILLE     CLEAR     57  54  88 S8        30.02S
$$

WIZ051-052-058>065-066-070>072-311200-
SOUTHEAST WISCONSIN

CITY           SKY/WX    TMP DP  RH WIND       PRES   REMARKS
MILWAUKEE      CLOUDY    63  54  72 W6        30.00R
WAUKESHA       PTCLDY    55  54  94 CALM      30.02R
MILWAUKEE/TIMM CLOUDY    61  54  77 W6        30.01R
RACINE         CLOUDY    61  55  81 W6        30.02S
BURLINGTON     MOCLDY    57  53  87 SW3       30.02R
KENOSHA        PTCLDY    59  56  89 W8        30.02R
FOND DU LAC    PTCLDY    56  54  93 S3        29.99S
SHEBOYGAN      MOCLDY    56  55  97 W6        29.98R
WEST BEND      PTCLDY    61  54  77 SW3       30.00R
JUNEAU         CLEAR     58  55  87 CALM      30.02R
$$

LSZ147-162-311200-
LAKE SUPERIOR

STATION/POSITION TIME  TEMP    WIND        PRES    WAVE
                       AIR SEA DIR/SP/G            HT/PER
                 (UTC) (F)     (DEG/KT/KT) (MB)    (FT/S)
W MID LAKE BUOY  0950   49 41  270/  8/  8 1014.0R   0
PORT WING        1040   55     160/  5/  5 1015.2R
SAXON HARBOR     1000          170/  4/  8 1014.6S
$$

LMZ867-665-643>646-311200-
LAKE MICHIGAN

STATION/POSITION TIME  TEMP    WIND        PRES    WAVE
                       AIR SEA DIR/SP/G            HT/PER
                 (UTC) (F)     (DEG/KT/KT) (MB)    (FT/S)
N MID LAKE BUOY  0950   56 53  240/  4/  4 1013.5S   1
NORTHPORT PIER   1000   57     250/  4/  6 1014.2S
SISTER BAY       0856   60     310/  7/  8   N/A
ALGOMA LAKESHORE 0851          330/  6/  8   N/A
KEWAUNEE LAKESHO 1000   56     300/  2/  4 1013.8F
SHEBOYGAN LAKESH 1000   63     280/ 10/ 11 1014.9S
PORT WASHINGTON  1000   63     280/  5/  8 1015.9
ATWATER BUOY     1000   65     250/  8     1016.5S
MILWAUKEE LAKESH 1000   64     280/  6/  9   N/A
S MID LAKE BUOY  0950   62 60  230/ 14/ 14 1015.5S   1/ 3
KENOSHA   LAKESH 1000   63     250/  8/ 11 1015.9S
$$

TC  - TEMPERATURE IN CELSIUS
VSB - VISIBILITY IN STATUTE MILES
WCI - WIND CHILL INDEX
HX  - HEAT INDEX




USA.gov is the U.S. government's official web portal to all federal, state and local government web resources and services.